Monticello, AR

4:31 AM CST on December 09, 2019 (GMT -0600)
Monticello Municipal-Ellis

Weather History for KLLQ - November, 2019

Change the Weather History Date:

Thursday, November 14, 2019

  Actual Average Record
Temperature  
Mean Temperature 43 °F -  
Max Temperature 53 °F 63 °F 87 °F (1955)
Min Temperature 33 °F 41 °F 20 °F (1963)
Degree Days  
Heating Degree Days 22    
Moisture  
Dew Point 29 °F    
Average Humidity 62    
Maximum Humidity 85    
Minimum Humidity 32    
Precipitation  
Precipitation 0.00 in - - ()
Sea Level Pressure  
Sea Level Pressure 30.29 in    
Wind  
Wind Speed 3 mph (NW)    
Max Wind Speed 6 mph    
Max Gust Speed -    
Visibility 10 miles    
Events      
Averages and records for this station are not official NWS values.
T = Trace of Precipitation, MM = Missing Value Source: NWS Daily Summary

Daily Weather History Graph

Daily Weather History Graph

Search for Another Location

Airport or City:

Astronomy

Nov. 14, 2019 Rise Set
Actual Time 6:37 AM CST 5:04 PM CST
Civil Twilight 6:11 AM CST 5:31 PM CST
Nautical Twilight 5:41 AM CST 6:01 PM CST
Astronomical Twilight 5:11 AM CST 6:30 PM CST
Moon 6:54 PM CST (11/14) 8:30 AM CST (11/14)
Length of Visible Light 11h 19m
Length of Day
10h 27m
Waning Gibbous, 95% of the Moon is Illuminated
Nov 14
Waning Gibbous
Nov 19
Last Quarter
Nov 26
New
Dec 4
First Quarter
Dec 11
Full

Hourly Weather History & Observations

Time (CST) Temp. Windchill Dew Point Humidity Pressure Visibility Wind Dir Wind Speed Gust Speed Precip Events Conditions
12:53 AM 37.0 °F 34.5 °F 25.0 °F 62% 30.25 in 10.0 mi South 3.5 mph - N/A   Clear
1:53 AM 39.0 °F 35.7 °F 25.0 °F 57% 30.25 in 10.0 mi SW 4.6 mph - N/A   Clear
2:53 AM 39.0 °F 35.7 °F 25.0 °F 57% 30.25 in 10.0 mi SW 4.6 mph - N/A   Clear
3:53 AM 39.9 °F 36.7 °F 26.1 °F 58% 30.24 in 10.0 mi Variable 4.6 mph - N/A   Overcast
4:53 AM 39.0 °F 36.8 °F 28.0 °F 65% 30.23 in 10.0 mi WNW 3.5 mph - N/A   Overcast
5:53 AM 39.0 °F - 28.9 °F 67% 30.24 in 10.0 mi Calm Calm - N/A   Overcast
6:53 AM 39.9 °F 37.8 °F 30.0 °F 68% 30.27 in 10.0 mi WNW 3.5 mph - N/A   Overcast
7:53 AM 39.9 °F 37.8 °F 30.9 °F 70% 30.30 in 10.0 mi WNW 3.5 mph - N/A   Overcast
8:22 AM 41.0 °F 38.0 °F 32.0 °F 70% 30.30 in 10.0 mi West 4.6 mph - N/A   Overcast
8:38 AM 42.1 °F 39.2 °F 32.0 °F 67% 30.30 in 10.0 mi NW 4.6 mph - N/A   Overcast
8:53 AM 42.1 °F - 33.1 °F 70% 30.30 in 10.0 mi Calm Calm - N/A   Overcast
9:53 AM 44.1 °F 40.8 °F 34.0 °F 68% 30.33 in 10.0 mi West 5.8 mph - N/A   Overcast
10:53 AM 46.0 °F 43.9 °F 34.0 °F 63% 30.31 in 10.0 mi Variable 4.6 mph - N/A   Overcast
11:53 AM 48.0 °F - 33.1 °F 56% 30.30 in 10.0 mi NNW 4.6 mph - N/A   Overcast
12:53 PM 51.1 °F - 32.0 °F 48% 30.29 in 10.0 mi Calm Calm - N/A   Overcast
1:53 PM 53.1 °F - 27.0 °F 37% 30.25 in 10.0 mi Variable 3.5 mph - N/A   Overcast
2:53 PM 53.1 °F - 24.1 °F 32% 30.27 in 10.0 mi NNE 3.5 mph - N/A   Overcast
3:53 PM 52.0 °F - 25.0 °F 35% 30.26 in 10.0 mi North 4.6 mph - N/A   Overcast
4:53 PM 50.0 °F - 27.0 °F 41% 30.28 in 10.0 mi North 3.5 mph - N/A   Mostly Cloudy
5:53 PM 44.1 °F 42.5 °F 28.9 °F 55% 30.31 in 10.0 mi NNW 3.5 mph - N/A   Clear
6:53 PM 39.0 °F - 30.0 °F 70% 30.32 in 10.0 mi Calm Calm - N/A   Clear
7:53 PM 36.0 °F - 30.0 °F 79% 30.33 in 10.0 mi Calm Calm - N/A   Clear
8:53 PM 35.1 °F 31.0 °F 30.0 °F 82% 30.35 in 10.0 mi NNW 4.6 mph - N/A   Clear
9:53 PM 35.1 °F - 28.9 °F 78% 30.35 in 10.0 mi Calm Calm - N/A   Clear
10:53 PM 33.1 °F 30.0 °F 28.9 °F 85% 30.35 in 10.0 mi NW 3.5 mph - N/A   Clear
11:53 PM 33.1 °F 30.0 °F 28.0 °F 82% 30.35 in 10.0 mi NNW 3.5 mph - N/A   Clear